Terminal Aerodrome Forecast
Issued by NWS Houston/Galveston TX

Home | Current Version | Previous Version | Text Only | Print | Product List | Glossary On
Versions: 1 2 3 4 5 6 7 8 9 10 11 12 13 14 15 16 17 18 19 20 21 22 23 24 25 26 27 28 29 30 31 32 33 34 35 36 37 38 39 40 41 42 43 44 45 46 47 48 49 50
000
FTUS44 KHGX 312325
TAFHOU
TAF
KHOU 312325Z 0100/0124 20012KT P6SM VCTS SCT050CB SCT110 BKN250
      TEMPO 0101/0105 VRB15G28KT 4SM TSRA BKN035CB
     FM011000 23003KT P6SM VCSH SCT015 BKN050
     FM011400 27005KT P6SM BKN040
     FM012100 27005KT P6SM VCSH BKN040=

USA.gov is the U.S. government's official web portal to all federal, state and local government web resources and services.